Wind_Speed
49 47 46 45 44 43 42 40 38 36 34 32 31 29 28 27 27 26 26 26 25 25 25 24 24 24 23 23 23 23 23 23 22 21 20 19 19 19 19 19 19 18 18 17 17 16 16 15 15 15 14 14 14 14 13 13 13 12 12 11 10 9 8 7 7 7 7 8 8 8 8 8 9 9 9 8 8 7 7 7 8 8 9 10 11 11 12 13
49 48 47 46 45 44 42 41 39 37 35 33 32 30 29 28 28 27 27 26 26 25 25 25 25 24 24 24 24 24 23 23 22 22 21 21 20 20 20 19 19 18 18 17 17 17 16 15 15 15 14 14 14 14 13 13 12 12 11 11 10 9 8 7 7 8 8 8 9 9 9 9 9 10 10 10 8 8 8 8 8 9 10 11 12 12 13 14
49 48 48 47 45 44 43 41 39 37 36 34 33 32 30 29 29 28 28 27 27 26 26 26 26 25 25 25 24 24 24 23 23 23 22 22 22 21 21 20 19 18 18 18 17 17 16 16 15 15 14 14 14 13 13 13 12 11 11 10 10 9 8 8 9 9 10 10 10 10 9 9 10 11 11 11 10 9 9 9 9 10 11 12 13 13 14 15
50 49 48 47 46 45 44 42 40 39 37 36 34 33 32 31 30 30 29 28 28 27 27 27 27 26 26 26 25 25 25 24 24 24 24 23 23 22 21 20 19 19 18 18 17 17 16 16 15 15 15 14 14 13 13 12 12 11 11 10 10 10 9 10 10 11 11 11 11 10 10 10 10 11 11 12 11 10 10 11 11 11 12 13 14 15 16 16
51 50 49 48 47 46 44 43 41 40 38 37 36 35 34 33 32 31 30 30 29 28 28 28 27 28 27 27 27 26 26 25 25 25 25 24 23 22 21 21 20 19 19 18 18 17 17 16 16 16 15 15 14 14 13 12 12 11 11 11 11 11 10 11 11 11 11 11 11 10 10 10 10 11 12 13 12 10 12 12 12 12 13 14 15 16 17 17
53 52 51 49 48 47 45 44 42 41 40 38 37 36 35 34 34 33 32 31 30 30 29 29 29 29 28 28 28 27 27 26 26 26 26 25 24 23 22 21 21 20 20 19 19 18 18 17 17 16 16 15 15 14 13 12 12 11 11 11 11 10 10 11 11 11 10 10 10 9 9 8 9 10 12 14 12 11 12 13 13 13 14 15 16 17 17 17
54 53 52 51 49 48 46 45 43 42 41 39 38 37 36 35 35 34 33 32 32 31 30 30 29 29 29 29 29 28 28 28 27 27 27 26 25 24 23 22 22 21 20 20 20 19 19 18 18 17 17 16 15 14 13 12 11 11 10 10 10 10 9 9 9 9 9 8 7 7 7 7 8 10 13 14 12 11 13 14 14 14 15 15 16 17 18 18
56 54 53 52 51 49 48 46 45 44 42 40 39 38 37 36 36 36 35 34 33 32 31 31 31 30 30 30 29 29 29 29 29 28 28 27 26 25 24 23 23 22 21 21 21 20 20 19 19 18 17 16 15 14 13 12 11 10 10 10 9 9 9 8 8 8 7 6 6 6 6 7 9 11 15 15 11 12 14 14 14 14 15 15 16 17 18 19
57 56 55 54 52 51 49 48 47 45 44 42 40 39 38 37 37 36 36 35 34 33 33 32 32 31 31 31 31 30 31 31 31 30 29 28 27 26 25 24 23 22 22 22 21 21 20 20 19 19 18 17 15 14 13 12 11 11 10 10 9 9 9 8 8 8 7 7 7 7 7 9 10 13 16 14 11 12 14 14 14 14 15 16 17 18 19 20
58 57 56 55 54 53 51 50 48 47 45 44 42 41 40 38 38 37 37 36 35 35 34 33 33 33 32 32 32 32 32 32 33 32 30 29 28 27 26 25 24 23 23 22 22 21 21 21 20 19 18 17 16 15 14 13 12 12 11 10 10 10 10 9 9 9 8 8 8 9 9 10 12 15 17 14 12 13 13 13 14 14 16 17 18 19 20 20
59 59 58 56 55 54 53 52 50 49 47 45 44 43 41 40 39 38 38 37 37 36 35 35 34 34 34 33 33 33 33 34 34 33 32 31 29 28 26 25 24 24 23 23 23 22 22 21 20 20 19 18 17 16 15 14 13 13 12 12 11 11 11 11 10 10 10 9 10 10 10 12 14 16 17 14 13 13 13 13 14 15 17 18 19 19 19 20
61 60 59 58 57 56 54 53 52 50 49 47 46 45 44 42 41 40 39 39 38 37 37 36 35 35 34 34 35 34 34 35 35 35 33 32 30 29 27 26 25 25 24 24 24 23 23 22 21 21 20 19 18 17 16 15 15 14 14 13 13 13 12 12 11 11 11 11 12 11 10 13 15 15 16 15 14 14 13 14 15 16 18 18 19 19 19 20
61 61 60 59 58 57 56 55 53 52 50 49 48 47 46 44 43 42 41 40 39 39 38 37 37 36 36 36 36 35 35 36 36 36 35 33 31 30 28 28 27 26 26 25 25 24 24 23 23 22 21 20 19 18 18 17 17 16 16 15 15 14 14 13 13 13 13 13 14 13 10 14 17 15 15 16 16 15 15 15 16 17 18 19 19 19 19 19
62 61 61 60 59 58 57 56 55 54 52 51 50 49 48 46 45 43 42 42 41 40 39 39 38 38 37 37 37 37 37 38 38 37 36 34 33 31 30 29 29 28 27 27 26 26 25 25 24 23 23 22 21 20 19 19 19 19 18 18 17 16 16 16 15 15 16 16 16 15 11 12 18 17 16 17 16 16 16 16 17 17 19 19 19 19 19 19
62 62 62 61 60 59 58 57 56 55 54 53 52 51 50 48 46 45 44 42 42 41 40 40 39 39 39 38 38 38 38 39 39 39 38 36 35 33 32 31 30 30 29 29 28 28 27 27 26 25 25 24 23 22 22 22 21 21 21 19 19 18 17 17 17 17 19 19 19 18 13 12 18 20 18 18 17 17 16 17 17 18 19 19 20 20 20 20
62 62 62 62 61 61 60 59 58 57 56 55 54 53 52 50 49 47 45 44 43 42 41 41 40 40 40 40 39 39 39 40 41 41 40 38 37 35 34 33 32 32 31 31 30 30 29 29 28 27 27 26 25 24 24 24 24 24 23 21 20 19 18 18 19 20 21 21 20 21 17 13 17 21 20 19 19 18 17 18 18 19 19 20 21 21 21 21
60 61 62 62 62 62 61 60 59 58 57 56 56 55 54 53 51 49 48 46 45 44 43 42 41 41 42 41 40 40 40 41 42 42 42 41 39 38 37 36 35 34 33 33 32 32 31 31 30 29 29 28 26 26 26 26 26 26 24 22 21 20 20 20 20 22 23 23 23 23 20 16 18 21 21 21 21 20 19 19 20 21 21 22 23 23 22 23
58 59 60 61 62 62 62 61 60 59 58 58 57 56 56 55 53 51 50 48 47 46 45 44 43 43 43 42 42 42 41 41 42 43 44 43 42 41 40 39 38 37 36 35 35 34 33 33 32 32 31 29 28 29 29 29 27 26 24 23 22 21 21 20 22 23 24 24 24 24 22 19 20 22 22 23 23 22 21 22 23 24 25 26 26 25 25 24
56 57 58 60 61 62 62 62 61 60 59 59 58 58 57 57 55 54 52 51 49 48 47 45 44 43 43 43 44 44 43 42 43 44 45 45 44 43 42 41 40 39 39 38 37 36 35 34 34 33 32 31 32 32 31 29 27 26 25 25 24 23 22 22 23 23 24 25 25 25 25 22 21 22 23 25 25 24 24 25 26 27 28 29 29 28 27 25
54 55 56 57 59 60 61 62 61 61 60 60 59 59 58 58 57 56 54 52 51 49 48 47 45 44 44 44 45 45 45 44 44 45 46 46 46 45 45 44 43 42 41 40 39 38 37 37 37 35 34 35 34 33 31 29 29 28 27 27 26 25 24 24 24 24 25 27 25 25 27 25 22 22 24 26 27 26 27 27 28 29 30 31 31 29 28 27
53 54 54 55 56 57 58 60 61 61 61 60 60 59 59 58 58 57 56 54 53 51 50 49 47 46 45 45 46 46 46 46 45 45 46 47 48 48 47 46 45 44 43 42 41 41 41 40 38 37 37 37 35 34 32 32 31 30 29 29 28 27 27 26 26 25 26 28 26 26 29 27 24 25 24 26 28 28 28 29 29 31 31 31 30 29 28 29
54 53 53 53 54 55 56 57 58 59 59 60 60 59 59 58 58 57 57 56 55 54 52 51 49 47 46 45 46 46 47 47 46 46 46 47 48 49 48 48 47 47 46 45 44 44 43 42 40 40 40 39 37 35 34 34 33 32 32 31 31 30 30 29 28 27 28 29 29 29 32 30 27 27 26 26 28 28 28 30 31 32 32 30 28 28 29 29
56 54 53 53 53 53 54 55 56 57 58 58 58 58 58 58 58 58 58 57 56 56 54 52 51 50 48 47 46 47 47 48 47 47 47 47 48 50 50 50 50 49 48 48 47 46 45 44 43 43 42 40 39 38 37 36 35 35 34 34 33 33 32 31 30 30 30 31 31 32 35 34 31 30 28 28 28 28 28 30 30 31 30 28 27 28 29 29
57 56 55 54 54 53 53 54 55 56 56 56 56 56 56 57 57 57 57 57 58 57 56 55 53 52 50 49 48 47 48 48 48 48 48 48 49 50 51 51 51 51 51 50 49 49 48 46 46 44 43 42 40 39 39 39 38 38 37 36 36 35 34 34 32 32 31 32 33 35 39 38 34 32 30 28 28 28 28 29 30 30 29 27 26 27 28 28
58 57 56 55 54 54 53 53 54 54 55 55 54 54 55 55 55 56 56 57 59 58 57 56 55 54 53 52 50 50 50 49 49 49 49 49 49 50 51 52 53 53 52 52 52 51 50 49 48 46 45 43 42 42 41 42 41 40 39 39 38 37 36 35 35 35 34 34 34 37 43 43 38 33 32 30 30 28 28 29 30 30 30 27 26 26 26 27
59 58 56 56 55 53 53 53 53 53 53 52 52 53 53 54 54 55 55 57 60 59 58 58 56 56 55 54 53 52 52 51 50 51 50 50 50 50 51 51 52 53 54 54 54 53 52 51 49 48 46 45 44 44 44 44 43 43 42 40 39 39 38 37 37 37 36 36 36 39 44 46 42 37 34 34 32 29 28 29 30 30 30 28 27 26 26 25
58 59 58 57 56 54 53 53 52 52 51 50 50 50 51 52 52 53 52 55 61 60 57 58 58 56 55 54 54 54 54 52 51 52 52 52 52 52 52 51 51 52 53 55 55 54 52 52 51 49 48 48 47 46 45 45 45 44 43 41 41 40 40 39 38 38 38 37 40 42 43 46 46 41 37 36 34 30 29 29 30 30 29 29 28 27 26 26
52 55 58 58 57 57 56 54 53 53 52 51 50 49 50 50 50 51 50 54 62 62 57 57 58 57 56 55 55 55 55 53 52 53 53 53 53 53 53 52 51 51 52 54 56 55 54 53 52 52 51 51 49 47 46 46 46 45 44 43 42 41 41 40 39 38 38 40 44 44 42 45 48 45 42 39 35 32 31 30 30 30 29 29 29 28 27 27
49 49 53 56 58 59 58 57 55 54 53 52 51 51 51 51 50 51 51 55 63 63 58 57 58 57 57 56 56 56 56 55 54 53 53 53 54 54 53 53 52 52 53 54 55 56 56 55 55 54 54 52 50 48 47 47 46 46 45 45 43 42 41 40 40 40 40 44 47 46 42 45 51 51 44 40 37 35 33 33 33 31 30 29 29 28 28 29
49 49 50 52 55 57 57 58 58 57 56 55 55 54 53 53 52 53 55 58 63 64 60 58 57 57 57 56 56 56 55 55 54 52 52 53 53 53 53 53 53 54 54 55 55 56 57 57 57 56 54 53 51 50 48 47 47 47 46 46 44 43 42 41 41 41 44 48 48 46 44 46 55 54 42 38 40 37 36 36 35 33 30 29 28 28 29 30
49 50 49 48 49 52 54 56 58 58 58 58 58 57 56 56 55 56 59 58 59 63 62 58 56 56 56 55 54 54 53 54 53 51 51 51 52 52 52 52 53 53 54 55 56 57 57 57 57 56 54 53 52 51 50 48 48 47 46 44 43 43 42 43 44 44 47 50 48 46 46 49 57 54 42 40 40 39 40 39 37 36 32 29 29 28 29 31
48 48 48 47 45 45 48 53 56 57 59 60 60 61 60 59 61 61 60 56 58 64 63 58 56 56 55 54 53 52 52 52 52 51 50 49 50 50 50 50 50 50 52 52 53 55 55 55 55 55 55 54 53 51 50 49 47 45 44 43 43 44 45 46 48 48 49 48 47 47 49 53 58 52 43 41 40 41 42 40 39 39 35 31 30 30 30 32
51 50 48 47 45 43 45 50 53 53 54 57 60 61 62 65 66 65 60 58 61 65 62 59 58 56 55 54 53 52 52 52 51 51 50 50 50 49 49 49 49 49 51 50 50 52 53 54 55 55 55 54 53 51 49 47 45 44 43 43 44 46 48 50 50 49 48 47 47 48 52 57 57 49 44 43 42 42 41 40 40 40 36 33 31 31 32 33
54 54 52 49 48 47 47 48 50 50 50 53 55 58 63 66 64 62 62 62 62 62 60 59 58 56 56 55 53 51 51 51 51 50 50 50 50 50 50 50 49 49 50 50 51 51 53 54 54 54 54 53 51 49 47 46 45 45 45 46 48 49 49 49 48 47 48 48 49 51 55 58 54 49 47 45 42 40 39 38 39 38 37 35 32 31 32 33
56 55 55 54 52 51 49 48 49 49 50 51 54 58 61 59 53 53 59 62 62 62 62 62 60 57 57 56 54 53 51 51 51 51 51 51 50 50 49 49 49 48 48 49 50 50 51 53 51 50 50 49 48 47 46 46 46 47 47 48 50 49 46 46 47 48 49 51 54 55 57 57 53 52 51 47 41 38 37 37 37 37 37 36 35 34 33 33
59 57 56 58 57 53 51 49 48 49 50 52 58 60 56 49 44 47 52 55 58 60 61 64 63 60 58 56 55 54 53 53 52 51 52 52 51 51 49 48 48 48 48 48 49 49 49 50 49 48 48 47 47 47 47 47 47 48 49 50 49 46 45 45 47 49 51 54 58 58 58 57 55 53 49 44 41 39 38 38 37 37 36 36 37 38 37 36
62 59 56 57 57 56 54 51 50 50 51 55 61 59 52 47 46 48 50 52 54 56 57 61 62 60 59 58 57 56 54 54 53 52 52 52 53 52 51 50 49 49 48 47 48 48 48 49 49 49 48 48 48 49 49 49 49 50 51 49 46 45 47 48 50 52 53 56 59 59 59 59 57 52 43 40 41 41 40 40 38 37 35 35 36 39 40 39
62 62 57 54 57 60 59 56 54 54 57 60 63 59 53 50 49 50 51 51 53 55 57 60 60 59 58 58 58 57 57 57 55 54 53 53 54 53 51 50 49 48 47 46 48 49 49 50 50 50 50 50 49 50 51 51 51 51 50 47 47 48 50 50 52 53 54 56 58 60 61 59 56 50 42 41 44 44 43 41 40 38 36 36 37 39 40 40
63 63 59 54 56 62 64 61 56 58 64 67 65 60 54 51 51 53 53 51 52 54 55 57 58 59 59 58 58 57 58 58 58 57 56 56 56 54 52 51 50 48 48 48 49 50 49 50 52 53 52 52 52 52 53 53 51 50 48 49 49 51 53 53 53 53 53 56 58 60 62 57 50 47 46 47 47 46 46 44 42 39 36 38 40 39 40 40
65 64 61 56 57 61 65 65 59 58 64 67 67 65 60 55 55 56 55 53 54 54 54 54 55 57 58 58 58 58 58 58 58 58 58 58 58 56 54 53 52 51 50 50 50 50 51 53 55 56 55 55 55 54 54 52 50 50 50 52 53 53 54 54 55 55 54 56 57 59 61 55 47 47 49 49 47 46 48 46 43 41 38 38 40 41 42 42
67 67 63 60 60 60 63 66 63 60 59 59 61 66 66 63 59 57 57 57 56 54 54 55 55 55 55 56 56 56 56 57 58 58 58 59 59 59 57 55 54 53 52 53 53 53 54 55 56 58 59 58 57 55 53 52 52 53 53 55 55 55 55 55 57 57 56 56 55 57 61 54 46 46 47 48 49 47 48 47 43 43 43 41 43 44 44 45
67 67 65 63 63 63 64 65 66 64 61 55 53 56 61 63 62 60 59 59 60 58 55 55 56 56 56 55 55 56 57 56 56 56 56 56 56 57 58 57 56 55 55 55 55 54 54 55 57 59 61 60 59 57 57 57 57 57 58 59 59 59 59 57 58 57 55 57 55 58 63 54 44 46 46 48 52 48 47 48 47 46 46 46 47 46 46 47
67 67 67 65 65 66 68 68 67 68 66 59 54 53 55 58 63 64 63 62 62 60 58 58 58 58 58 58 58 58 58 58 56 54 52 51 51 52 55 57 58 58 58 58 58 58 58 58 60 62 63 62 62 61 61 61 63 64 64 64 62 60 59 57 57 57 57 59 58 60 66 56 44 47 47 48 55 52 48 50 51 50 49 49 50 49 48 48
68 67 67 67 66 67 70 71 70 69 67 63 61 60 59 60 64 66 66 66 64 63 62 62 59 55 55 58 61 61 59 59 58 56 53 52 50 49 51 54 57 58 59 59 59 59 59 59 59 60 62 64 65 66 67 67 67 67 65 64 62 61 59 58 59 58 57 60 59 62 68 57 45 49 51 51 57 56 53 53 53 52 52 52 52 50 50 49
69 68 67 66 66 68 69 69 70 70 68 68 68 66 64 65 66 65 66 67 68 67 67 67 64 58 53 53 58 61 61 60 57 55 56 55 53 52 53 54 56 57 57 57 58 58 60 59 57 57 59 63 65 67 68 67 64 63 63 62 61 60 59 58 55 53 56 61 61 64 69 61 52 55 57 55 57 57 56 55 53 53 53 54 53 51 50 50
69 70 69 65 63 66 68 68 69 70 70 72 72 70 67 66 65 65 65 66 67 68 69 70 69 67 62 56 54 57 61 60 56 52 53 55 54 55 57 58 59 59 59 58 58 59 60 60 60 60 61 62 62 61 61 59 58 58 59 59 59 58 56 55 54 55 60 63 63 65 68 65 60 58 57 57 58 57 56 55 56 56 55 55 56 55 54 53
69 71 72 67 64 64 66 67 70 71 70 71 74 74 72 68 67 67 67 66 65 66 68 70 71 72 71 65 58 57 59 61 60 56 53 53 53 53 55 56 57 58 60 60 60 59 60 60 61 61 62 62 61 60 59 58 57 57 56 55 55 54 53 54 56 59 59 60 63 64 62 63 61 56 54 56 57 56 55 57 61 62 60 59 59 59 59 57
68 70 72 71 68 65 63 64 67 70 71 71 72 74 74 73 72 72 69 67 65 65 67 69 71 72 74 71 66 62 61 61 62 61 57 54 52 51 52 52 51 53 55 57 59 58 59 59 59 59 61 62 62 62 61 61 61 59 58 57 55 54 55 56 58 59 58 60 64 62 58 62 62 55 52 55 57 57 57 59 63 64 62 62 62 61 60 59
68 69 70 71 71 69 66 62 61 64 69 73 73 73 74 75 76 76 74 71 70 69 68 69 69 70 71 71 69 68 66 64 63 63 60 57 55 53 52 51 50 50 51 54 56 56 57 58 58 59 62 63 63 63 63 63 63 63 62 62 61 61 60 61 61 61 61 65 66 63 62 65 62 57 55 56 57 59 59 60 62 62 60 60 61 62 61 59
67 67 68 70 71 71 70 68 64 62 64 69 73 74 74 74 74 76 77 78 77 75 72 70 67 67 68 68 68 68 67 66 65 63 62 61 59 56 53 51 48 47 50 52 53 54 56 56 55 56 59 60 60 61 63 63 64 64 64 64 65 65 65 66 66 65 66 68 68 65 66 66 61 57 57 56 56 58 59 60 61 59 58 58 58 60 60 59
67 68 68 70 71 70 70 71 71 68 65 65 68 72 74 75 74 74 76 79 80 79 78 74 69 67 67 68 68 68 67 66 66 64 63 63 62 59 57 55 52 52 53 53 53 54 56 56 55 55 57 58 57 57 59 60 60 62 63 64 66 67 69 70 69 67 68 69 68 66 67 66 61 57 57 57 58 59 59 59 60 59 56 56 56 57 58 59
68 69 70 71 71 71 70 71 72 73 72 69 65 65 69 72 74 75 76 77 77 78 80 79 76 74 74 72 70 67 65 65 66 66 65 66 65 64 64 63 62 62 61 58 57 56 56 56 56 57 59 59 57 57 58 58 60 64 64 63 65 67 68 69 69 69 69 68 67 68 69 67 62 59 59 58 58 58 56 55 57 57 56 56 57 58 58 58
Wind_Direction
200 200 200 200 199 198 198 198 198 199 200 201 203 203 203 203 203 203 203 202 202 201 203 204 204 204 205 204 204 204 205 207 210 212 213 210 207 204 202 202 202 202 201 201 201 201 201 201 202 203 203 204 206 209 212 214 217 218 219 222 227 231 236 239 246 254 258 264 271 278 285 290 294 297 298 301 306 308 310 311 312 316 319 320 322 322 322 321
202 202 202 201 201 200 200 200 200 201 202 203 205 205 205 205 205 205 204 204 204 204 205 205 206 207 207 207 207 208 209 211 212 212 209 205 203 201 200 200 199 199 198 198 199 199 200 200 202 204 205 207 209 211 212 214 216 217 219 223 229 234 239 245 251 259 263 268 273 279 284 289 293 295 297 299 301 304 307 308 311 316 318 319 320 319 319 319
203 203 203 203 202 202 202 202 202 203 204 205 206 207 207 206 206 206 206 205 206 206 206 207 207 208 209 209 209 211 212 212 212 209 205 202 201 199 198 198 198 197 197 198 199 201 201 202 204 207 208 209 210 212 213 214 216 219 223 228 234 240 245 251 257 263 268 271 275 280 284 287 289 291 293 294 295 299 301 304 308 314 316 316 317 316 315 316
205 204 205 204 204 204 204 204 205 205 206 207 207 208 208 208 207 207 207 207 207 208 208 208 208 209 210 211 211 213 213 211 209 205 202 201 200 199 198 197 198 198 199 199 201 204 205 205 207 209 210 211 211 212 212 215 219 224 230 235 242 247 252 258 262 267 270 273 276 279 281 283 285 287 289 289 290 296 298 300 306 312 315 314 313 313 313 314
206 206 206 206 206 206 206 206 207 207 208 208 209 209 209 208 208 208 208 208 208 209 210 210 210 210 211 212 213 214 213 211 207 203 202 201 200 199 198 199 200 201 202 202 204 207 209 208 209 210 211 211 211 212 213 217 221 227 234 241 248 254 258 262 265 267 270 273 274 276 278 279 280 283 285 285 288 295 296 299 306 312 312 311 311 311 311 312
208 208 208 208 208 208 208 209 209 209 210 210 210 210 210 210 209 209 210 210 210 210 210 211 212 212 212 213 214 214 213 210 206 203 202 201 201 200 200 201 202 203 205 205 207 209 210 210 210 210 210 211 212 213 216 221 227 231 238 244 249 255 258 262 264 266 269 270 272 274 275 276 278 281 282 285 290 294 296 301 308 310 309 308 309 309 310 309
210 209 209 209 209 209 210 210 211 212 212 212 213 213 212 211 211 210 211 211 211 211 211 212 213 213 214 214 215 215 213 210 207 204 203 202 202 202 202 203 204 205 207 208 209 210 211 211 210 210 210 212 215 217 221 226 231 234 238 244 248 252 255 259 262 265 267 268 270 271 273 274 276 281 283 287 294 296 298 304 307 308 307 307 307 308 308 306
212 211 211 211 211 211 211 212 212 213 214 214 215 215 215 214 212 212 212 212 212 212 212 213 214 215 215 215 216 215 213 210 208 206 205 204 204 204 204 205 206 207 209 210 210 211 211 211 211 212 213 216 219 221 224 227 231 233 237 243 247 250 255 258 261 264 266 269 271 272 276 277 279 283 284 288 297 300 301 303 305 307 307 307 307 306 305 303
214 213 213 213 213 213 213 213 214 215 216 216 217 217 217 216 215 214 213 213 213 213 213 214 215 216 216 217 216 216 214 210 209 208 207 206 206 206 207 208 209 209 210 211 211 211 212 212 213 215 217 219 221 223 224 227 231 235 238 243 248 252 256 259 262 265 269 273 277 279 281 284 287 286 285 291 302 301 300 302 305 307 306 306 306 304 302 302
215 215 215 215 214 214 215 215 216 216 217 218 218 218 219 218 218 217 216 215 214 214 215 215 216 217 217 218 217 217 215 211 210 210 209 208 209 209 210 210 211 212 212 212 212 213 214 214 216 217 219 220 222 223 225 229 234 238 242 246 250 253 257 260 263 268 274 277 279 281 285 287 287 284 286 297 304 301 301 303 305 305 305 305 304 302 301 300
216 216 216 216 216 216 216 217 217 218 219 219 219 220 220 220 219 219 218 217 216 216 216 216 217 218 218 219 219 218 216 213 211 211 211 210 211 212 212 213 213 214 214 214 214 215 217 218 218 219 220 221 223 225 228 233 237 241 244 248 252 255 259 263 267 273 277 280 281 283 288 287 284 285 292 302 304 302 304 304 304 304 305 305 303 304 302 299
216 217 217 218 218 218 218 219 219 220 220 221 221 221 221 221 220 220 219 219 218 218 218 218 218 219 219 220 220 219 217 216 214 213 213 212 213 214 214 214 215 216 216 216 217 218 219 220 222 222 223 225 226 227 231 236 239 243 246 249 253 256 261 266 270 275 278 281 282 283 289 287 285 291 299 304 304 306 308 306 307 306 305 305 304 305 302 299
217 217 218 219 219 220 220 220 221 221 222 222 223 223 223 223 222 221 221 221 220 220 220 219 219 220 220 221 221 220 219 218 216 215 215 214 214 215 215 216 217 218 218 219 220 221 222 223 225 226 227 228 230 231 234 239 242 244 247 250 253 257 262 266 270 276 279 281 281 282 288 289 291 297 300 302 305 309 311 310 309 307 305 304 304 303 300 299
217 218 218 219 220 221 221 222 222 223 223 224 224 224 225 224 224 223 223 223 223 222 222 221 221 221 221 221 221 221 220 219 218 217 216 216 216 216 217 217 218 219 220 221 222 224 225 226 227 229 230 232 233 235 238 242 245 247 249 252 255 258 262 268 273 277 279 280 280 283 288 291 295 298 300 301 305 309 311 311 309 306 304 303 302 299 297 298
217 218 219 220 221 221 222 223 223 224 224 225 225 226 226 226 226 226 226 226 226 226 225 224 224 223 222 222 222 221 220 220 219 218 218 218 218 218 218 219 219 220 221 223 224 226 228 229 230 231 232 234 236 239 242 244 246 249 251 253 257 260 264 270 276 277 276 277 279 283 285 289 293 296 299 301 303 306 311 312 310 307 303 301 299 296 295 295
218 218 219 220 221 222 222 223 224 224 225 225 226 226 227 227 227 227 228 228 229 229 228 228 227 225 225 224 223 223 221 221 221 219 219 219 219 220 220 220 221 221 223 224 226 228 229 230 232 233 234 236 238 241 244 245 247 250 252 255 259 263 266 270 273 274 275 277 279 281 284 287 288 290 296 299 300 303 309 312 310 307 303 299 296 293 291 290
218 219 219 220 221 222 223 223 224 225 225 226 226 227 228 228 228 228 229 229 230 230 230 230 229 228 227 226 225 225 223 222 222 221 220 220 220 221 221 221 222 223 224 225 227 228 230 232 234 235 236 237 240 243 245 245 247 251 255 258 261 263 265 267 270 273 275 277 279 281 285 288 285 287 293 295 297 302 308 310 309 307 304 299 294 291 288 285
218 219 220 221 222 222 223 224 224 225 226 227 227 228 228 229 230 230 230 231 231 231 232 231 231 230 229 227 226 227 225 224 223 223 222 221 221 222 223 223 223 224 225 226 227 229 231 233 235 236 237 239 242 244 244 245 249 254 258 260 261 262 264 266 268 272 276 279 281 284 287 287 285 289 292 293 295 301 306 308 308 309 306 300 294 289 285 283
217 218 220 221 222 223 224 225 225 226 227 227 228 229 229 230 231 231 232 232 232 233 233 233 233 232 231 229 228 228 227 226 225 224 224 223 223 223 224 225 225 226 227 228 228 230 232 234 235 237 239 240 241 243 245 248 252 256 258 259 261 262 264 265 268 272 277 279 283 287 288 286 288 291 292 293 296 300 303 305 308 309 305 299 293 288 284 282
216 217 218 220 221 223 224 225 226 226 227 228 229 229 230 231 231 232 233 233 234 234 235 235 234 233 232 230 229 228 228 227 226 226 225 225 224 225 225 225 227 228 229 230 230 232 233 235 236 237 239 240 242 245 248 251 253 255 257 259 261 263 264 266 269 273 276 279 282 287 286 287 290 291 292 295 297 300 303 305 308 307 303 297 293 289 285 282
217 217 217 218 220 222 223 225 226 227 227 228 229 230 231 231 232 233 234 235 235 235 235 235 235 234 233 232 230 229 228 228 228 227 227 227 227 227 227 227 228 229 231 232 232 233 235 236 237 238 240 242 244 246 249 251 253 255 257 259 262 263 265 266 269 272 276 279 282 284 284 286 290 290 291 294 296 301 304 306 308 306 301 296 292 287 284 283
219 218 218 218 218 220 222 224 225 226 227 228 229 230 231 231 232 233 234 235 235 235 235 235 235 235 235 234 232 230 230 230 230 229 229 229 229 229 229 229 230 231 231 232 233 234 236 237 237 239 241 244 245 247 249 251 253 255 257 259 261 263 264 266 268 271 275 278 282 283 283 284 287 288 291 293 296 301 305 307 308 305 300 295 290 287 285 283
221 220 219 219 218 219 221 222 224 226 227 228 229 229 230 231 232 233 234 235 235 235 235 235 235 235 235 235 233 232 231 231 231 231 231 231 231 231 230 231 231 231 232 233 234 235 236 238 238 240 242 243 245 247 249 251 253 255 257 259 260 261 263 265 268 271 273 277 281 283 282 282 284 286 291 295 297 302 305 307 308 305 298 292 290 290 287 282
225 223 222 221 220 220 220 221 222 224 226 227 228 229 230 231 232 233 233 234 235 235 235 235 235 235 235 235 234 233 232 232 232 232 232 232 233 233 232 232 233 233 234 234 235 236 237 238 239 240 242 243 245 247 249 251 252 254 255 257 259 261 263 266 268 270 272 276 280 284 283 281 282 286 291 294 297 301 304 306 308 304 297 293 294 294 290 283
228 227 226 224 223 222 221 221 221 222 224 225 227 228 229 230 231 232 233 234 234 234 235 235 235 235 234 235 235 234 233 233 233 234 234 234 235 235 234 234 234 235 235 236 236 237 238 239 240 241 243 244 246 248 249 251 252 253 255 256 258 260 263 266 268 269 272 274 278 283 283 283 284 287 290 292 294 299 303 305 307 304 298 296 297 295 291 285
228 229 229 228 228 227 226 225 224 223 223 224 226 227 228 229 230 231 232 234 234 234 235 235 235 235 235 236 235 235 235 234 234 236 236 236 237 237 237 237 236 237 237 238 238 238 239 241 242 242 244 245 246 247 249 250 252 253 255 257 259 261 263 264 266 269 272 275 278 280 282 285 286 286 288 290 293 299 302 303 305 304 298 294 294 293 292 290
229 229 229 229 229 230 230 229 228 227 226 227 227 227 229 229 230 231 232 235 233 232 234 235 235 236 236 237 237 237 237 236 237 238 238 239 239 239 239 239 239 239 240 240 240 240 242 243 244 244 245 245 246 247 248 250 252 254 256 258 259 261 262 264 266 268 271 276 278 278 281 286 286 285 287 289 293 299 301 302 304 302 294 289 288 289 291 292
230 231 231 231 230 230 231 231 231 231 230 230 230 230 230 230 231 232 233 235 233 230 232 234 236 236 236 236 237 238 238 237 238 239 239 240 240 240 241 241 241 242 242 242 242 242 242 243 244 244 245 245 246 247 249 251 253 255 256 258 259 261 262 264 266 268 271 274 276 278 281 285 285 284 287 291 295 299 301 303 304 301 293 285 284 285 287 289
228 231 233 232 231 231 231 231 232 233 233 232 231 232 232 232 233 233 234 235 233 231 231 233 235 236 236 237 238 239 239 238 238 239 239 240 241 241 241 242 243 243 243 243 243 242 242 243 244 245 246 247 247 248 250 252 253 255 257 258 259 260 262 264 266 268 271 272 275 279 280 283 283 281 284 292 296 299 302 304 304 302 296 286 280 282 284 285
224 227 230 231 231 232 232 232 232 233 234 233 233 232 232 233 233 233 235 234 233 234 232 231 233 235 236 237 238 239 240 240 240 240 240 241 242 242 242 242 243 244 244 244 244 244 244 244 245 245 246 248 249 250 251 252 254 255 256 258 259 261 263 264 266 268 268 270 275 278 279 282 281 279 285 294 296 299 303 303 303 303 297 286 279 279 281 284
224 226 228 229 230 231 232 233 233 233 233 234 234 233 232 232 232 233 235 235 235 237 235 231 232 234 236 237 238 238 239 240 241 241 241 242 243 243 243 243 244 245 245 245 246 246 246 246 246 247 248 249 250 251 252 252 253 255 256 258 261 262 263 264 265 265 265 269 274 277 278 279 277 279 288 294 295 300 302 303 304 303 298 288 280 278 281 287
226 227 228 228 227 227 229 232 234 234 234 234 234 235 235 233 232 233 234 234 236 237 236 234 233 233 235 237 237 238 238 239 240 241 241 241 242 243 244 245 246 247 247 247 248 249 249 249 248 248 248 248 249 250 251 252 254 256 258 260 262 263 263 263 263 263 265 270 274 275 276 275 275 281 290 292 294 298 300 302 304 302 299 292 285 284 289 293
227 228 229 229 228 227 228 231 233 233 234 236 236 236 236 236 235 235 235 234 235 238 238 236 234 233 234 234 235 236 237 238 239 240 240 240 240 241 242 243 244 245 246 246 247 248 248 248 248 248 248 248 249 250 252 254 255 257 258 259 260 261 262 263 264 265 268 270 271 272 273 275 278 284 289 290 292 295 297 300 302 301 298 293 289 290 293 296
225 228 230 231 230 229 228 228 230 229 230 234 236 236 235 236 238 238 236 236 237 239 239 239 237 234 234 234 235 235 237 238 239 241 241 241 241 240 241 243 243 245 246 246 246 247 247 248 248 249 250 250 251 252 253 254 255 255 256 257 258 259 261 264 266 267 268 269 269 269 271 275 281 287 288 288 290 293 295 298 299 299 295 293 292 291 292 295
222 225 227 230 229 228 227 227 226 226 227 229 233 235 234 235 237 238 237 237 237 238 239 240 240 236 235 235 235 236 236 237 238 240 242 242 242 242 242 243 245 246 247 247 248 248 249 250 250 250 252 252 253 253 253 254 254 254 255 255 257 258 261 264 265 266 268 268 268 270 272 277 283 285 285 287 289 291 293 295 295 293 293 295 295 292 290 292
221 222 224 228 228 226 226 226 226 226 226 227 231 234 234 234 235 236 237 237 237 238 239 242 243 241 239 237 236 237 237 237 237 238 240 242 242 242 241 242 244 245 246 248 249 250 251 251 250 251 251 251 251 252 251 252 252 252 253 254 256 258 260 262 263 264 265 266 269 272 275 278 281 280 281 286 288 289 290 290 289 289 291 293 293 292 290 290
220 220 220 223 226 226 226 226 228 230 229 229 232 232 232 232 232 234 236 237 237 238 239 242 244 244 243 241 239 239 240 240 239 239 239 240 241 241 241 242 242 243 244 247 249 249 250 250 249 249 250 249 249 250 250 251 251 252 253 254 256 257 257 259 261 262 263 265 269 272 274 277 279 278 280 284 284 285 286 287 286 286 287 287 286 287 288 289
219 218 217 217 219 222 225 226 228 231 233 233 233 231 229 228 229 231 234 235 236 236 237 239 242 243 243 242 241 240 241 241 241 241 240 240 240 240 241 242 243 244 245 246 248 248 249 250 249 248 249 249 249 249 250 250 251 253 254 255 256 256 257 258 260 261 263 265 268 270 273 275 276 278 281 282 282 284 285 284 284 285 285 285 283 282 284 287
222 219 215 214 215 218 222 224 224 228 232 233 232 230 228 227 228 231 232 233 234 234 235 237 239 241 242 242 241 241 241 241 241 242 242 242 241 239 239 241 243 244 244 246 248 248 249 251 250 248 248 248 248 248 249 250 252 254 255 255 255 256 257 257 258 260 262 265 267 270 272 274 275 279 281 280 280 282 282 282 284 283 282 282 282 282 284 286
228 223 217 216 217 216 218 220 220 223 226 228 230 231 229 228 229 232 232 234 236 236 236 237 238 240 241 242 242 242 242 242 241 241 242 242 242 240 240 240 241 242 244 245 246 247 247 248 249 249 249 250 249 250 251 253 254 255 255 255 254 256 257 258 259 260 261 263 265 270 273 274 274 275 277 277 278 279 281 283 284 282 280 279 280 282 283 285
232 227 221 221 223 219 216 216 215 219 224 224 226 229 231 230 230 231 233 235 238 238 238 240 242 242 243 244 245 245 245 244 243 242 242 241 241 242 242 243 243 243 244 246 246 246 248 249 250 250 251 252 252 253 253 253 252 253 253 253 254 255 257 257 258 259 261 264 267 271 274 272 270 272 275 277 278 278 281 283 282 282 282 281 281 282 285 287
235 231 226 226 228 226 223 219 215 219 224 223 221 224 229 231 230 230 231 233 236 238 238 241 243 244 245 246 247 247 247 247 246 245 244 242 241 242 243 245 246 245 246 247 247 248 250 250 249 249 249 250 251 251 252 252 252 253 253 253 254 254 255 257 260 263 266 268 269 271 271 269 270 274 277 278 278 278 280 281 282 283 283 282 282 283 286 288
236 234 230 230 231 230 230 227 223 224 223 220 220 221 224 228 229 229 230 232 234 236 236 238 241 244 246 246 246 247 247 248 247 246 246 244 242 242 243 244 246 246 246 247 248 248 249 250 250 250 250 250 251 251 252 252 253 253 253 254 255 257 259 261 264 265 266 266 268 270 270 269 270 273 275 276 278 280 281 281 282 283 283 284 284 286 286 285
235 235 233 233 232 231 232 231 229 228 224 220 221 221 221 225 227 229 231 232 233 234 234 235 238 242 244 244 245 246 247 248 249 247 246 244 241 240 242 244 246 247 247 248 249 249 249 250 251 252 252 252 251 251 251 252 253 255 256 258 260 262 263 263 264 265 264 266 268 268 268 269 272 274 275 276 278 281 281 280 281 283 285 286 285 286 286 285
234 234 233 233 232 232 233 233 233 232 229 226 225 223 222 224 226 228 230 231 232 234 234 235 236 238 239 240 242 244 244 246 248 248 246 245 242 241 242 244 245 247 248 249 250 250 250 249 249 250 250 251 251 252 253 255 257 259 260 260 262 262 262 263 263 262 263 265 265 266 268 270 272 273 274 274 276 278 280 281 282 284 285 285 286 286 286 287
232 233 232 232 232 233 233 232 233 233 231 231 230 227 224 223 224 226 228 229 230 232 234 235 236 236 237 237 237 239 240 242 242 243 244 245 245 243 243 245 246 247 248 249 250 251 252 251 250 250 251 250 250 252 255 257 258 259 258 259 259 259 259 259 257 257 262 266 265 266 270 271 269 270 272 274 276 278 281 284 285 284 284 285 286 286 286 286
232 232 232 231 230 232 233 232 232 233 233 233 232 230 228 225 223 223 225 226 227 229 231 233 234 235 236 236 236 235 236 238 239 240 241 242 242 242 242 244 246 247 248 249 250 251 253 254 254 255 255 254 252 252 255 256 256 257 257 257 257 257 257 256 255 259 264 264 263 265 270 271 269 268 270 273 276 279 283 284 284 284 284 284 284 284 285 285
232 232 233 232 230 229 231 233 233 234 233 233 233 232 231 229 227 225 224 224 225 226 227 229 231 233 234 235 236 235 235 236 238 239 239 238 237 238 240 242 243 245 247 249 250 252 254 255 256 257 258 258 256 254 255 257 257 257 257 257 256 256 256 256 257 260 261 262 264 267 268 269 270 270 271 274 277 279 279 279 280 281 282 282 281 281 281 281
232 232 232 233 232 229 228 229 232 233 233 234 233 233 232 231 230 229 227 226 226 226 226 228 229 231 233 235 236 236 235 235 237 238 239 238 237 239 242 244 245 246 247 248 249 250 250 250 252 254 255 256 257 255 255 257 258 257 257 257 257 257 257 257 258 260 260 263 267 269 269 270 272 274 276 277 277 277 276 275 275 276 278 278 279 278 278 278
231 232 233 233 234 232 229 227 227 230 232 234 233 232 232 232 231 232 231 231 231 230 229 230 229 231 234 235 236 237 236 237 238 237 237 239 240 241 242 244 244 244 243 242 242 243 244 245 247 250 251 252 253 255 255 256 258 257 257 257 257 257 257 257 258 260 262 265 269 272 272 271 272 275 277 277 276 274 273 272 272 274 275 276 276 276 276 276
230 231 232 233 233 233 232 229 227 227 229 231 233 232 233 233 233 233 233 234 234 234 233 233 232 232 234 235 237 237 236 237 239 238 239 241 242 242 243 242 240 239 239 238 240 242 244 245 245 247 251 251 250 253 254 254 255 255 253 254 256 257 258 259 261 262 264 268 270 270 271 271 274 276 277 275 274 273 273 274 275 276 276 275 274 273 274 274
230 230 231 233 233 232 232 231 229 228 228 228 230 232 233 234 233 234 235 235 235 235 235 235 234 235 235 236 236 237 237 239 241 240 241 243 243 242 243 241 239 239 240 240 243 247 249 250 249 250 254 254 251 251 253 253 255 254 252 253 256 257 259 261 262 263 265 267 268 268 270 273 276 278 278 277 277 276 275 274 274 274 273 272 270 269 270 271
Height
5802 5805 5808 5810 5813 5815 5817 5820 5822 5825 5827 5830 5832 5834 5836 5838 5840 5842 5843 5845 5847 5849 5850 5852 5853 5855 5856 5858 5859 5861 5862 5863 5865 5866 5867 5868 5870 5871 5872 5873 5875 5876 5877 5879 5880 5881 5882 5883 5884 5886 5887 5888 5889 5889 5890 5891 5891 5892 5892 5893 5893 5894 5894 5895 5895 5895 5895 5895 5895 5895 5894 5894 5894 5893 5893 5893 5893 5893 5893 5892 5892 5892 5891 5890 5890 5889 5889 5888
5800 5803 5806 5808 5811 5813 5815 5818 5820 5823 5825 5828 5830 5832 5834 5836 5838 5840 5842 5844 5845 5847 5849 5850 5852 5854 5855 5857 5858 5860 5861 5862 5863 5865 5866 5867 5869 5870 5871 5873 5874 5875 5876 5878 5879 5880 5881 5882 5883 5885 5886 5886 5887 5888 5889 5890 5891 5891 5892 5892 5893 5893 5894 5894 5894 5894 5894 5894 5894 5894 5894 5893 5893 5892 5892 5892 5892 5892 5892 5891 5891 5891 5890 5890 5889 5888 5888 5887
5797 5800 5803 5806 5809 5811 5813 5816 5818 5821 5823 5825 5828 5830 5832 5834 5836 5838 5840 5842 5844 5846 5847 5849 5851 5852 5854 5855 5857 5858 5860 5861 5862 5864 5865 5866 5868 5869 5870 5872 5873 5874 5876 5877 5878 5879 5880 5881 5882 5883 5884 5885 5886 5887 5888 5889 5890 5890 5891 5891 5892 5892 5893 5893 5893 5893 5893 5893 5893 5893 5893 5893 5892 5892 5891 5891 5891 5891 5891 5891 5890 5890 5889 5889 5888 5887 5887 5886
5794 5798 5800 5803 5806 5809 5811 5814 5816 5819 5821 5823 5826 5828 5830 5832 5834 5836 5838 5840 5842 5844 5846 5847 5849 5851 5852 5854 5855 5857 5858 5860 5861 5862 5864 5865 5867 5868 5870 5871 5872 5873 5874 5876 5877 5878 5879 5880 5881 5882 5883 5884 5885 5886 5887 5888 5889 5889 5890 5890 5891 5891 5892 5892 5892 5892 5892 5892 5892 5892 5892 5892 5891 5891 5890 5889 5890 5890 5890 5890 5890 5889 5889 5888 5887 5886 5885 5885
5791 5794 5797 5800 5803 5806 5809 5811 5814 5816 5819 5821 5824 5826 5828 5830 5832 5834 5836 5838 5840 5842 5844 5846 5848 5849 5851 5852 5854 5855 5857 5858 5859 5861 5862 5864 5866 5867 5869 5870 5871 5872 5873 5875 5876 5877 5878 5879 5880 5881 5882 5883 5884 5885 5886 5887 5888 5888 5889 5889 5890 5890 5891 5891 5891 5891 5891 5891 5891 5891 5891 5891 5890 5890 5889 5888 5889 5889 5889 5889 5889 5888 5888 5887 5886 5885 5884 5883
5788 5791 5794 5797 5800 5803 5806 5809 5812 5814 5816 5819 5821 5824 5826 5828 5830 5832 5834 5836 5838 5840 5842 5844 5846 5847 5849 5851 5852 5854 5855 5856 5858 5860 5861 5863 5864 5866 5867 5869 5870 5871 5872 5874 5875 5876 5877 5878 5879 5880 5881 5882 5883 5884 5885 5886 5887 5887 5888 5888 5888 5889 5889 5889 5889 5890 5890 5890 5890 5890 5890 5890 5889 5889 5888 5887 5888 5888 5888 5888 5887 5887 5886 5885 5884 5884 5883 5882
5784 5788 5791 5794 5797 5800 5803 5806 5809 5811 5814 5817 5819 5821 5823 5826 5828 5830 5832 5834 5836 5838 5840 5842 5844 5846 5847 5849 5850 5852 5853 5855 5857 5858 5860 5861 5863 5865 5866 5867 5869 5870 5871 5873 5874 5875 5876 5877 5878 5879 5880 5881 5882 5883 5884 5885 5885 5886 5886 5887 5887 5887 5888 5888 5888 5888 5888 5889 5889 5889 5889 5889 5888 5887 5886 5886 5887 5887 5887 5886 5886 5886 5885 5884 5883 5882 5881 5880
5781 5784 5787 5790 5794 5797 5800 5803 5806 5809 5811 5814 5816 5819 5821 5823 5825 5827 5829 5831 5833 5836 5838 5840 5842 5844 5845 5847 5849 5850 5852 5854 5855 5857 5858 5860 5862 5863 5865 5866 5868 5869 5870 5871 5873 5874 5875 5876 5877 5878 5879 5880 5881 5882 5883 5883 5884 5885 5885 5885 5886 5886 5886 5886 5887 5887 5887 5887 5888 5888 5888 5887 5887 5886 5884 5885 5886 5886 5885 5885 5885 5884 5883 5883 5882 5881 5880 5879
5777 5780 5784 5787 5790 5793 5796 5799 5802 5806 5809 5811 5814 5816 5818 5820 5822 5825 5827 5829 5831 5833 5835 5838 5840 5842 5843 5845 5847 5848 5850 5852 5854 5855 5857 5859 5860 5862 5863 5865 5866 5868 5869 5870 5871 5872 5874 5875 5876 5877 5878 5879 5880 5881 5881 5882 5883 5883 5884 5884 5885 5885 5885 5885 5885 5886 5886 5886 5886 5886 5886 5886 5885 5884 5883 5884 5885 5884 5884 5883 5883 5882 5882 5881 5880 5879 5878 5877
5773 5777 5780 5783 5787 5790 5793 5796 5799 5802 5805 5808 5811 5813 5816 5818 5820 5822 5824 5826 5829 5831 5833 5835 5837 5839 5841 5843 5845 5846 5848 5850 5852 5853 5855 5857 5859 5860 5862 5863 5865 5866 5868 5869 5870 5871 5872 5873 5875 5876 5877 5878 5879 5879 5880 5881 5881 5882 5882 5883 5883 5884 5884 5884 5884 5884 5885 5885 5885 5885 5885 5884 5884 5882 5881 5882 5883 5882 5882 5882 5881 5881 5880 5879 5878 5877 5876 5875
5769 5773 5776 5780 5783 5786 5790 5793 5796 5799 5802 5805 5808 5810 5813 5815 5817 5819 5822 5824 5826 5828 5830 5832 5835 5837 5839 5841 5842 5844 5846 5848 5850 5852 5854 5855 5857 5859 5860 5862 5863 5865 5866 5867 5869 5870 5871 5872 5873 5874 5875 5876 5877 5878 5879 5879 5880 5880 5881 5881 5882 5882 5882 5883 5883 5883 5883 5883 5883 5883 5883 5883 5882 5881 5880 5881 5881 5881 5881 5880 5880 5879 5878 5877 5876 5875 5875 5874
5765 5769 5772 5776 5779 5783 5786 5789 5792 5796 5798 5801 5804 5807 5809 5812 5814 5816 5819 5821 5823 5825 5828 5830 5832 5834 5836 5838 5840 5842 5844 5846 5848 5850 5852 5854 5855 5857 5859 5860 5862 5863 5865 5866 5867 5868 5870 5871 5872 5873 5874 5875 5876 5877 5877 5878 5878 5879 5879 5880 5880 5881 5881 5881 5882 5882 5882 5882 5881 5882 5882 5881 5880 5880 5879 5879 5879 5879 5879 5879 5878 5877 5876 5875 5874 5873 5873 5872
5761 5765 5768 5772 5775 5779 5782 5786 5789 5792 5795 5798 5801 5804 5806 5809 5811 5813 5815 5818 5820 5822 5824 5827 5829 5831 5833 5835 5837 5840 5842 5844 5846 5848 5850 5852 5853 5855 5857 5858 5860 5861 5863 5864 5866 5867 5868 5869 5870 5871 5872 5873 5874 5875 5876 5876 5877 5877 5878 5878 5879 5879 5880 5880 5880 5880 5880 5880 5879 5880 5881 5879 5878 5879 5878 5878 5878 5878 5877 5877 5876 5875 5874 5873 5873 5872 5871 5870
5757 5760 5764 5768 5771 5774 5778 5781 5785 5788 5791 5794 5797 5800 5803 5806 5808 5810 5813 5815 5817 5819 5821 5824 5826 5828 5830 5832 5834 5837 5839 5841 5843 5846 5848 5849 5851 5853 5855 5856 5858 5859 5861 5862 5863 5865 5866 5867 5868 5869 5870 5871 5872 5873 5874 5874 5875 5875 5876 5876 5877 5878 5878 5878 5878 5878 5878 5878 5877 5878 5879 5878 5876 5876 5877 5876 5876 5876 5876 5875 5875 5874 5873 5872 5871 5870 5869 5868
5752 5756 5760 5763 5767 5770 5774 5777 5781 5784 5787 5790 5793 5796 5799 5802 5805 5807 5809 5812 5814 5816 5818 5821 5823 5825 5827 5829 5831 5834 5836 5838 5840 5843 5845 5847 5849 5851 5852 5854 5855 5857 5859 5860 5861 5862 5864 5865 5866 5867 5868 5869 5870 5871 5872 5872 5873 5873 5874 5875 5875 5876 5876 5876 5876 5876 5875 5875 5875 5875 5877 5878 5875 5874 5875 5875 5875 5875 5875 5874 5873 5872 5871 5870 5869 5868 5867 5866
5747 5751 5755 5758 5762 5765 5769 5773 5776 5780 5783 5786 5789 5792 5795 5798 5801 5803 5806 5808 5810 5813 5815 5818 5820 5822 5824 5826 5829 5831 5833 5835 5837 5840 5842 5844 5846 5848 5850 5851 5853 5854 5856 5857 5859 5860 5861 5862 5864 5865 5866 5867 5868 5869 5870 5870 5871 5871 5871 5873 5874 5874 5874 5874 5874 5873 5872 5872 5873 5873 5875 5877 5875 5873 5873 5873 5873 5873 5873 5872 5871 5870 5869 5868 5867 5866 5865 5864
5742 5746 5750 5753 5757 5760 5764 5768 5771 5775 5778 5781 5785 5788 5791 5793 5796 5799 5801 5804 5806 5809 5812 5814 5816 5819 5821 5823 5826 5828 5830 5832 5834 5837 5839 5841 5843 5845 5846 5848 5850 5852 5853 5854 5856 5857 5859 5860 5861 5862 5863 5865 5866 5867 5867 5867 5868 5868 5870 5871 5871 5872 5872 5872 5872 5871 5870 5870 5870 5870 5872 5874 5873 5871 5871 5871 5870 5871 5871 5870 5869 5868 5867 5866 5865 5864 5863 5862
5737 5741 5745 5748 5752 5756 5759 5763 5766 5770 5773 5777 5780 5783 5786 5789 5792 5795 5797 5800 5802 5805 5807 5810 5812 5814 5817 5820 5822 5824 5827 5829 5831 5833 5835 5837 5839 5841 5843 5845 5847 5848 5850 5851 5853 5854 5856 5857 5858 5859 5861 5863 5864 5864 5864 5864 5865 5866 5868 5868 5869 5869 5869 5870 5869 5868 5867 5867 5867 5867 5869 5871 5871 5870 5869 5868 5868 5869 5869 5868 5867 5866 5865 5863 5862 5861 5860 5860
5732 5736 5740 5744 5747 5751 5754 5758 5761 5765 5769 5772 5775 5779 5782 5784 5787 5790 5793 5795 5798 5800 5803 5806 5808 5811 5814 5817 5819 5820 5823 5825 5827 5829 5832 5834 5836 5838 5839 5841 5843 5845 5846 5848 5850 5852 5853 5854 5855 5857 5859 5860 5860 5860 5861 5862 5864 5865 5865 5865 5866 5866 5867 5867 5866 5866 5865 5864 5865 5865 5865 5867 5868 5868 5867 5865 5866 5866 5866 5865 5864 5863 5862 5860 5858 5858 5857 5857
5727 5731 5735 5738 5742 5746 5750 5753 5756 5760 5764 5767 5771 5774 5777 5780 5783 5785 5788 5791 5794 5796 5799 5802 5804 5807 5810 5812 5814 5816 5818 5821 5823 5825 5827 5830 5832 5834 5836 5838 5840 5841 5843 5845 5847 5849 5850 5851 5852 5854 5855 5855 5856 5857 5859 5860 5861 5861 5862 5862 5863 5863 5863 5864 5864 5864 5863 5861 5863 5863 5861 5862 5865 5865 5864 5863 5862 5863 5863 5862 5862 5860 5858 5856 5855 5854 5854 5854
5723 5726 5729 5733 5737 5741 5744 5748 5752 5755 5759 5762 5766 5769 5773 5776 5778 5781 5784 5786 5788 5792 5794 5797 5800 5802 5805 5807 5810 5812 5814 5817 5819 5821 5824 5826 5828 5830 5832 5834 5836 5838 5840 5842 5844 5845 5846 5847 5849 5851 5851 5852 5853 5855 5856 5857 5858 5858 5859 5859 5859 5860 5860 5860 5861 5861 5861 5859 5860 5860 5857 5859 5861 5861 5862 5861 5860 5860 5860 5859 5859 5857 5855 5853 5851 5851 5851 5850
5719 5722 5725 5728 5732 5735 5739 5743 5746 5750 5754 5757 5761 5764 5767 5770 5773 5776 5779 5780 5783 5786 5789 5792 5795 5798 5801 5803 5806 5808 5811 5813 5815 5817 5820 5822 5824 5826 5828 5830 5832 5834 5836 5838 5839 5840 5842 5844 5846 5846 5847 5849 5851 5852 5853 5854 5855 5855 5855 5856 5856 5856 5857 5857 5858 5858 5858 5857 5857 5857 5854 5855 5858 5858 5859 5859 5858 5858 5857 5856 5855 5853 5851 5849 5848 5848 5847 5847
5715 5719 5721 5724 5728 5731 5734 5737 5741 5745 5749 5752 5756 5759 5761 5764 5768 5770 5773 5775 5777 5781 5784 5787 5790 5793 5796 5799 5801 5804 5806 5808 5811 5813 5815 5817 5819 5821 5824 5826 5827 5829 5831 5833 5835 5836 5838 5840 5841 5842 5844 5846 5847 5849 5850 5850 5851 5851 5852 5852 5852 5853 5853 5854 5855 5855 5855 5854 5853 5853 5850 5850 5854 5855 5856 5857 5856 5856 5855 5853 5852 5849 5847 5846 5845 5845 5844 5843
5712 5715 5718 5721 5724 5726 5729 5732 5736 5740 5743 5748 5751 5753 5756 5759 5762 5764 5767 5768 5771 5775 5779 5782 5785 5788 5791 5794 5797 5800 5802 5804 5806 5808 5810 5813 5814 5817 5819 5821 5823 5825 5827 5829 5830 5832 5834 5835 5837 5838 5840 5842 5844 5845 5846 5847 5847 5848 5848 5849 5849 5849 5849 5850 5851 5851 5852 5851 5850 5849 5844 5844 5849 5852 5853 5854 5853 5853 5852 5850 5849 5846 5844 5843 5843 5842 5840 5840
5708 5711 5714 5718 5720 5723 5726 5728 5732 5735 5739 5743 5745 5748 5751 5754 5756 5759 5761 5762 5765 5770 5773 5777 5780 5783 5786 5789 5793 5795 5797 5800 5802 5804 5806 5808 5810 5812 5814 5817 5819 5821 5823 5824 5825 5827 5829 5831 5833 5835 5837 5838 5840 5841 5842 5842 5843 5844 5845 5845 5845 5846 5846 5847 5847 5847 5848 5848 5848 5846 5839 5836 5843 5848 5850 5851 5851 5851 5850 5848 5845 5843 5841 5841 5840 5839 5837 5836
5702 5706 5710 5714 5717 5720 5723 5725 5728 5731 5735 5737 5739 5743 5746 5748 5751 5753 5755 5755 5758 5764 5768 5772 5775 5778 5782 5786 5788 5790 5792 5795 5798 5799 5801 5803 5805 5808 5810 5812 5814 5816 5818 5819 5821 5823 5826 5827 5829 5831 5833 5835 5836 5836 5837 5837 5838 5840 5840 5841 5841 5842 5843 5842 5843 5843 5843 5844 5844 5843 5837 5832 5834 5841 5846 5846 5847 5849 5848 5845 5842 5840 5838 5838 5837 5835 5834 5833
5697 5701 5705 5709 5714 5717 5719 5722 5725 5728 5731 5733 5736 5739 5741 5744 5745 5747 5750 5747 5750 5760 5764 5766 5770 5775 5779 5781 5783 5784 5787 5792 5794 5794 5797 5799 5801 5803 5805 5807 5810 5812 5813 5814 5816 5820 5823 5824 5825 5827 5829 5830 5831 5831 5832 5832 5834 5835 5837 5838 5837 5838 5838 5838 5839 5839 5840 5841 5839 5837 5837 5831 5826 5831 5838 5841 5843 5845 5844 5842 5840 5838 5836 5835 5834 5832 5831 5830
5693 5696 5700 5704 5709 5711 5713 5717 5721 5725 5727 5729 5733 5735 5736 5739 5740 5742 5743 5739 5744 5756 5759 5761 5766 5770 5773 5775 5777 5778 5782 5788 5788 5788 5792 5794 5795 5798 5800 5803 5805 5806 5808 5809 5812 5816 5818 5818 5820 5821 5822 5824 5826 5827 5827 5828 5830 5831 5833 5833 5833 5833 5833 5834 5835 5835 5836 5836 5833 5832 5836 5832 5823 5823 5830 5834 5838 5840 5840 5839 5837 5835 5834 5832 5831 5830 5829 5828
5688 5691 5694 5698 5701 5704 5708 5713 5717 5720 5722 5725 5728 5729 5732 5733 5734 5737 5734 5733 5742 5751 5754 5759 5762 5764 5767 5770 5772 5774 5778 5781 5782 5784 5787 5787 5789 5792 5795 5798 5799 5800 5802 5805 5807 5810 5811 5813 5814 5816 5818 5820 5822 5822 5823 5824 5825 5827 5828 5828 5828 5828 5828 5830 5831 5831 5832 5830 5828 5829 5832 5830 5819 5816 5824 5830 5832 5834 5834 5834 5833 5831 5830 5829 5828 5827 5826 5825
5683 5686 5688 5691 5695 5700 5705 5709 5711 5714 5717 5719 5721 5723 5726 5726 5729 5729 5724 5731 5744 5746 5749 5755 5756 5759 5762 5765 5767 5770 5772 5775 5776 5779 5781 5782 5785 5787 5790 5792 5793 5795 5797 5799 5802 5804 5806 5808 5809 5811 5814 5815 5817 5818 5819 5820 5821 5822 5822 5822 5823 5823 5825 5826 5826 5827 5826 5823 5825 5826 5827 5826 5813 5808 5822 5828 5826 5828 5829 5828 5828 5827 5826 5825 5824 5824 5823 5822
5678 5680 5683 5686 5691 5695 5700 5703 5705 5708 5710 5712 5715 5716 5718 5720 5721 5719 5720 5735 5743 5738 5742 5750 5752 5755 5758 5759 5762 5764 5767 5769 5771 5773 5776 5778 5780 5782 5785 5786 5788 5790 5792 5795 5797 5799 5801 5803 5804 5807 5809 5811 5812 5813 5813 5814 5815 5816 5817 5818 5819 5819 5820 5820 5821 5821 5818 5818 5822 5822 5822 5820 5807 5806 5820 5824 5821 5823 5823 5822 5823 5821 5821 5820 5820 5820 5820 5818
5672 5675 5678 5682 5686 5690 5695 5697 5699 5701 5703 5705 5708 5709 5712 5712 5710 5711 5723 5737 5734 5728 5736 5745 5749 5752 5753 5754 5756 5758 5761 5763 5765 5767 5770 5773 5774 5777 5780 5782 5784 5786 5787 5791 5793 5793 5796 5797 5800 5801 5803 5805 5806 5807 5808 5809 5811 5812 5813 5814 5814 5814 5814 5814 5814 5814 5813 5816 5819 5818 5816 5810 5802 5808 5818 5819 5818 5819 5817 5817 5817 5815 5815 5816 5815 5815 5815 5813
5666 5670 5673 5676 5681 5686 5689 5691 5692 5695 5697 5699 5700 5702 5704 5701 5701 5711 5725 5729 5723 5723 5733 5739 5743 5746 5746 5747 5750 5753 5755 5757 5759 5761 5763 5766 5769 5772 5774 5776 5779 5780 5782 5786 5786 5787 5789 5790 5793 5794 5796 5799 5800 5802 5804 5805 5807 5807 5808 5809 5808 5808 5807 5807 5808 5808 5810 5813 5813 5812 5809 5802 5800 5808 5813 5814 5815 5815 5814 5813 5811 5810 5810 5810 5811 5810 5809 5808
5660 5664 5667 5672 5677 5680 5683 5685 5687 5690 5693 5693 5693 5695 5694 5691 5699 5713 5719 5719 5719 5723 5729 5731 5734 5738 5739 5742 5745 5748 5750 5752 5754 5756 5758 5760 5763 5766 5769 5771 5774 5775 5778 5780 5779 5781 5783 5783 5787 5789 5791 5794 5796 5797 5799 5800 5801 5801 5803 5803 5802 5803 5802 5801 5803 5804 5804 5806 5806 5805 5802 5797 5800 5805 5806 5808 5811 5811 5810 5810 5808 5806 5805 5805 5806 5806 5804 5803
5654 5657 5662 5666 5669 5672 5677 5680 5682 5684 5687 5688 5686 5684 5683 5688 5700 5708 5708 5711 5715 5719 5722 5721 5723 5729 5733 5737 5740 5742 5744 5747 5750 5751 5752 5755 5758 5762 5765 5767 5770 5772 5773 5774 5774 5777 5777 5778 5783 5785 5786 5789 5790 5791 5793 5793 5794 5795 5796 5796 5796 5798 5798 5797 5798 5798 5799 5798 5797 5797 5796 5796 5800 5799 5798 5802 5805 5807 5807 5805 5804 5802 5800 5800 5800 5800 5800 5799
5648 5651 5655 5658 5663 5668 5672 5674 5677 5678 5680 5681 5677 5674 5680 5690 5698 5700 5701 5705 5709 5713 5716 5713 5715 5722 5727 5731 5735 5736 5739 5741 5744 5745 5747 5750 5752 5756 5760 5763 5765 5766 5768 5769 5769 5771 5772 5773 5777 5779 5780 5782 5783 5784 5786 5786 5787 5788 5789 5789 5791 5794 5793 5792 5792 5792 5792 5789 5788 5791 5790 5793 5795 5792 5794 5799 5800 5801 5802 5801 5800 5799 5798 5798 5795 5792 5793 5793
5641 5645 5649 5653 5658 5664 5666 5670 5672 5672 5674 5672 5667 5671 5681 5687 5691 5693 5695 5699 5703 5707 5709 5707 5709 5715 5720 5725 5729 5731 5733 5735 5737 5739 5742 5744 5746 5750 5755 5757 5759 5761 5764 5765 5764 5765 5766 5767 5770 5772 5773 5775 5776 5777 5778 5779 5780 5781 5782 5785 5787 5787 5787 5787 5785 5785 5785 5782 5783 5786 5785 5787 5789 5786 5790 5796 5795 5795 5796 5795 5795 5796 5795 5795 5792 5789 5787 5787
5633 5637 5642 5647 5653 5657 5660 5663 5665 5666 5666 5662 5660 5669 5677 5681 5685 5687 5688 5692 5695 5699 5701 5700 5703 5707 5712 5715 5720 5724 5726 5728 5730 5733 5737 5738 5741 5746 5750 5752 5754 5757 5759 5759 5757 5758 5760 5760 5762 5764 5766 5768 5769 5770 5771 5772 5773 5774 5777 5780 5781 5780 5780 5781 5778 5778 5779 5777 5777 5780 5780 5781 5782 5782 5787 5790 5789 5789 5789 5789 5790 5791 5791 5790 5788 5786 5784 5783
5625 5630 5636 5642 5645 5649 5652 5655 5658 5658 5655 5651 5655 5664 5671 5676 5679 5679 5682 5686 5688 5690 5692 5694 5697 5700 5702 5707 5712 5715 5717 5720 5724 5727 5729 5732 5735 5741 5745 5746 5748 5751 5752 5752 5751 5752 5754 5754 5754 5757 5759 5760 5761 5762 5764 5767 5768 5770 5772 5774 5774 5773 5772 5772 5772 5772 5773 5771 5771 5773 5775 5775 5777 5781 5782 5781 5783 5783 5782 5784 5785 5785 5786 5784 5782 5782 5781 5780
5618 5623 5630 5635 5637 5639 5643 5646 5647 5646 5643 5644 5651 5659 5666 5670 5672 5674 5678 5681 5681 5684 5687 5689 5692 5693 5695 5700 5703 5707 5710 5713 5717 5719 5722 5725 5730 5734 5738 5740 5742 5744 5744 5744 5744 5746 5747 5747 5747 5749 5751 5751 5754 5758 5761 5763 5764 5764 5765 5766 5766 5766 5765 5765 5765 5766 5767 5766 5766 5768 5770 5770 5771 5776 5776 5774 5777 5777 5776 5778 5779 5779 5780 5779 5777 5776 5776 5775
5610 5615 5623 5627 5627 5629 5632 5633 5634 5634 5634 5639 5646 5653 5658 5662 5666 5670 5673 5674 5676 5680 5683 5685 5686 5688 5691 5694 5697 5701 5704 5706 5709 5712 5715 5719 5725 5729 5733 5735 5736 5737 5737 5736 5737 5740 5740 5741 5742 5742 5743 5746 5750 5753 5754 5755 5756 5756 5757 5758 5759 5759 5759 5757 5756 5758 5761 5762 5763 5765 5764 5763 5765 5769 5770 5769 5769 5772 5771 5772 5772 5772 5772 5772 5771 5770 5770 5769
5602 5608 5616 5619 5618 5620 5621 5621 5625 5626 5627 5633 5641 5646 5651 5655 5660 5663 5666 5668 5670 5673 5677 5680 5681 5683 5686 5689 5692 5694 5696 5699 5702 5705 5709 5715 5720 5724 5726 5727 5728 5729 5730 5730 5732 5734 5734 5733 5733 5734 5736 5739 5741 5743 5745 5746 5748 5749 5749 5751 5752 5751 5751 5750 5750 5754 5757 5756 5758 5759 5755 5756 5761 5764 5766 5763 5761 5765 5767 5766 5765 5766 5765 5764 5763 5764 5764 5762
5595 5601 5607 5607 5608 5611 5610 5612 5616 5617 5620 5630 5636 5638 5642 5647 5650 5654 5658 5662 5664 5667 5671 5673 5675 5677 5680 5683 5684 5685 5688 5692 5694 5699 5704 5709 5713 5716 5717 5717 5718 5720 5722 5723 5725 5727 5725 5724 5725 5727 5729 5731 5732 5735 5738 5739 5739 5739 5740 5743 5745 5745 5747 5747 5747 5749 5749 5748 5752 5752 5746 5749 5757 5760 5761 5758 5753 5757 5762 5760 5758 5758 5758 5757 5756 5757 5757 5755
5588 5593 5595 5597 5599 5600 5599 5604 5610 5612 5619 5626 5627 5629 5634 5637 5641 5646 5651 5654 5657 5660 5663 5665 5668 5672 5674 5676 5677 5678 5682 5684 5686 5692 5697 5700 5705 5708 5709 5709 5710 5711 5713 5716 5718 5718 5717 5718 5720 5720 5721 5722 5724 5727 5729 5730 5731 5731 5735 5738 5740 5742 5743 5740 5740 5741 5739 5742 5747 5742 5737 5744 5753 5754 5754 5753 5749 5750 5753 5753 5752 5752 5751 5750 5750 5750 5750 5749
5580 5582 5585 5589 5591 5591 5594 5601 5606 5608 5614 5617 5617 5622 5627 5630 5635 5640 5643 5646 5649 5651 5655 5658 5662 5665 5667 5669 5670 5672 5675 5677 5680 5684 5687 5691 5697 5700 5701 5702 5702 5704 5706 5708 5709 5709 5708 5710 5712 5711 5711 5713 5716 5720 5722 5725 5726 5726 5730 5733 5733 5735 5734 5732 5734 5732 5730 5737 5739 5731 5731 5741 5748 5748 5747 5747 5745 5744 5744 5746 5747 5746 5745 5744 5744 5744 5744 5743
5570 5572 5577 5582 5583 5583 5589 5596 5596 5598 5605 5608 5610 5616 5620 5624 5631 5634 5634 5637 5641 5644 5648 5650 5654 5657 5658 5660 5663 5665 5668 5671 5674 5676 5680 5684 5688 5691 5692 5693 5694 5697 5699 5700 5701 5700 5698 5700 5702 5703 5704 5707 5712 5716 5717 5718 5718 5719 5722 5725 5725 5725 5725 5725 5724 5721 5725 5731 5727 5724 5729 5734 5739 5743 5742 5740 5739 5738 5739 5739 5738 5738 5739 5738 5737 5736 5736 5737
5560 5563 5569 5575 5576 5576 5581 5586 5587 5590 5598 5601 5602 5609 5614 5619 5624 5624 5624 5628 5634 5639 5641 5642 5645 5647 5650 5654 5657 5659 5662 5665 5666 5669 5674 5678 5680 5682 5684 5685 5687 5689 5691 5691 5692 5691 5690 5690 5694 5696 5697 5701 5707 5711 5710 5709 5709 5712 5715 5716 5717 5718 5718 5715 5713 5716 5723 5720 5714 5721 5728 5724 5727 5737 5738 5735 5735 5734 5736 5734 5729 5728 5730 5731 5730 5729 5728 5728
5551 5556 5563 5566 5567 5569 5574 5578 5581 5586 5591 5592 5593 5601 5607 5611 5614 5615 5617 5624 5628 5630 5631 5632 5636 5640 5645 5650 5651 5652 5655 5657 5658 5663 5669 5672 5674 5675 5676 5678 5680 5682 5684 5684 5684 5684 5683 5683 5688 5690 5690 5694 5699 5703 5704 5702 5702 5706 5707 5708 5710 5710 5709 5707 5707 5713 5717 5708 5704 5718 5723 5714 5719 5730 5733 5732 5732 5731 5731 5729 5723 5721 5722 5722 5721 5721 5720 5719
5544 5549 5555 5556 5556 5562 5568 5571 5575 5578 5581 5582 5585 5591 5597 5601 5606 5609 5614 5618 5618 5620 5622 5625 5632 5638 5641 5643 5643 5644 5647 5649 5651 5657 5664 5666 5667 5668 5669 5671 5673 5676 5677 5677 5677 5678 5676 5677 5682 5683 5682 5685 5690 5694 5697 5696 5694 5697 5698 5699 5701 5701 5701 5701 5702 5707 5708 5701 5701 5711 5712 5708 5714 5723 5725 5727 5726 5724 5723 5721 5717 5716 5716 5715 5714 5712 5712 5711
5538 5542 5546 5547 5547 5553 5559 5563 5566 5568 5571 5573 5575 5582 5588 5593 5599 5603 5606 5607 5608 5613 5617 5621 5629 5634 5634 5635 5634 5635 5640 5645 5647 5653 5658 5658 5659 5661 5663 5665 5667 5669 5669 5669 5670 5670 5669 5671 5676 5676 5672 5674 5681 5687 5689 5688 5686 5687 5688 5689 5691 5694 5695 5695 5696 5699 5699 5696 5698 5702 5700 5701 5711 5717 5717 5718 5717 5714 5712 5711 5710 5710 5710 5710 5708 5706 5704 5703
5530 5534 5536 5536 5538 5544 5549 5553 5557 5559 5562 5564 5567 5575 5581 5585 5591 5596 5596 5597 5601 5605 5609 5616 5623 5626 5624 5624 5624 5627 5636 5641 5642 5646 5649 5647 5648 5652 5654 5656 5659 5659 5659 5661 5662 5662 5663 5665 5669 5668 5662 5664 5676 5680 5680 5681 5678 5673 5676 5682 5686 5688 5688 5687 5689 5692 5693 5691 5693 5693 5689 5693 5706 5711 5709 5708 5707 5704 5705 5706 5703 5703 5705 5703 5701 5699 5697 5696
5521 5524 5526 5527 5529 5535 5539 5543 5547 5550 5552 5557 5564 5571 5574 5577 5584 5586 5584 5588 5593 5597 5602 5609 5614 5614 5613 5614 5617 5625 5633 5633 5633 5636 5636 5634 5638 5641 5642 5645 5648 5648 5649 5653 5654 5655 5656 5657 5660 5660 5654 5657 5670 5672 5671 5672 5663 5656 5667 5681 5684 5683 5681 5679 5680 5684 5687 5686 5683 5681 5682 5689 5699 5702 5699 5699 5699 5696 5698 5700 5697 5695 5695 5693 5692 5691 5690 5689